[[{"header":{"parameterUnit":"m.s-1","parameterCategory":1,"la1":30.2991,"la2":30.254,"lo1":-89.0895,"lo2":-89.0444,"dy":0.0017,"dx":0.0017,"nx":28,"ny":28,"refTime":"2024-05-09T03:00:00:Z","depth":0,"parameterNumber":2,"parameterNumberName":"U-component_of_WINDS"},"data":[0,0,0,0,0,0,0,0,0,0,0,0,0,0,0,0,0,0,0,0,0,0,0,0,0,0,0,0,0,0,0,0,0,0,0,0,0,0,0,0,0,0,0,0,0,0,0,0,0,0,0,0,0,0,0,0,0,0,-2.3794,-2.3796,0,-2.3948,-2.395,-2.3951,-2.4024,-2.4023,-2.4023,-2.4023,-2.4174,-2.4178,-2.4182,0,0,0,0,0,0,0,0,0,0,0,0,0,-2.3556,-2.356,-2.3794,-2.3796,-2.3798,-2.3948,-2.395,-2.3952,-2.4024,-2.4023,-2.4023,-2.4023,-2.4173,-2.4177,-2.4182,0,0,0,0,0,0,0,0,0,0,0,0,0,-2.3679,-2.3561,-2.3794,-2.3852,-2.3859,-2.3947,-2.395,-2.3952,-2.4024,-2.4023,-2.4023,-2.4023,-2.4171,-2.4177,-2.4183,-2.4223,0,0,-2.4202,-2.4204,0,0,0,0,0,0,0,0,-2.3672,-2.3688,-2.3842,-2.3848,-2.3856,-2.3967,-2.3921,-2.4043,-2.4024,-2.3961,-2.4023,-2.4023,-2.4105,-2.4116,-2.4145,-2.423,-2.4237,-2.4202,-2.4206,-2.4209,-2.421,0,0,0,0,0,0,0,-2.3663,-2.3681,-2.3855,-2.3844,-2.3853,-2.3868,-2.3885,-2.3944,-2.4031,-2.3966,-2.3972,-2.3989,-2.4108,-2.4139,-2.4149,-2.4239,-2.4202,-2.4207,-2.4211,-2.4214,-2.4362,-2.4362,0,0,0,0,0,0,-2.3646,-2.3674,-2.385,-2.386,-2.3762,-2.3872,-2.3892,-2.3931,-2.4031,-2.4046,-2.3989,-2.3992,-2.4129,-2.4142,-2.4155,-2.4208,-2.4208,-2.4214,-2.4218,-2.4362,-2.4362,-2.4362,0,0,0,0,0,0,-2.3641,-2.3661,-2.3844,-2.3768,-2.3793,-2.3877,-2.392,-2.3934,-2.3965,-2.4048,-2.4063,-2.4005,-2.4129,-2.4146,-2.4206,-2.4214,-2.4217,-2.4223,-2.4362,-2.4362,-2.4362,-2.4314,0,0,0,0,0,0,-2.3634,-2.3659,-2.3677,-2.3768,-2.3797,-2.3894,-2.3921,-2.3937,-2.3976,-2.3981,-2.4067,-2.4081,-2.413,-2.4196,-2.4212,-2.4222,-2.4227,-2.4361,-2.4362,-2.4362,-2.4315,-2.4312,-2.431,0,0,0,0,0,-2.3625,-2.3656,-2.3678,-2.3699,-2.3821,-2.3895,-2.3911,-2.3968,-2.3976,-2.3994,-2.4047,-2.4078,-2.421,-2.4201,-2.422,-2.4232,-2.4361,-2.4362,-2.4362,-2.4316,-2.4313,-2.431,0,0,0,0,0,0,-2.3562,-2.3669,-2.3694,-2.3757,-2.3816,-2.3907,-2.3931,-2.3963,-2.4021,-2.4023,-2.4089,-2.4108,-2.4161,-2.4203,-2.4191,-2.4275,-2.4288,-2.4292,-2.4247,-2.4245,-2.4242,-2.4231,-2.4232,0,0,0,0,0,-2.3556,-2.3609,-2.3699,-2.3745,-2.3774,-2.3847,-2.3881,-2.392,-2.3984,-2.4009,-2.4067,-2.4125,-2.418,-2.4214,-2.4269,-2.4321,-2.4339,-2.4338,-2.4335,-2.4333,-2.4336,-2.4365,-2.4365,-2.4364,-2.4364,-2.4364,0,0,-2.3543,-2.3608,-2.3637,-2.3734,-2.3785,-2.3836,-2.3868,-2.3921,-2.3959,-2.4016,-2.4077,-2.412,-2.419,-2.4245,-2.4273,-2.4281,-2.434,-2.4334,-2.4331,-2.4336,-2.4366,-2.4366,-2.4365,-2.4365,-2.4365,-2.4365,0,0,-2.3546,-2.3601,-2.3645,-2.3695,-2.3772,-2.382,-2.383,-2.3916,-2.3948,-2.401,-2.4054,-2.4098,-2.4191,-2.4239,-2.4275,-2.4293,-2.4323,-2.4308,-2.4296,-2.4323,-2.4324,-2.4324,-2.433,-2.4331,-2.4311,-2.4311,-2.4311,0,-2.3519,-2.3601,-2.3663,-2.3714,-2.3754,-2.3809,-2.3853,-2.3898,-2.3988,-2.4013,-2.4022,-2.4139,-2.4189,-2.4256,-2.426,-2.4288,-2.43,-2.43,-2.4319,-2.432,-2.4321,-2.4327,-2.4329,-2.4308,-2.4309,-2.4309,-2.4309,0,-2.3564,-2.3619,-2.3645,-2.3732,-2.3775,-2.3822,-2.3888,-2.3924,-2.3958,-2.4004,-2.4065,-2.4128,-2.4196,-2.4214,-2.4247,-2.4285,-2.4288,-2.4306,-2.4321,-2.4318,-2.4325,-2.4328,-2.4305,-2.4306,-2.4307,-2.4307,0,0,-2.3534,-2.3654,-2.3662,-2.3702,-2.379,-2.3832,-2.388,-2.3948,-2.3977,-2.4035,-2.4076,-2.4152,-2.417,-2.4211,-2.425,-2.4274,-2.4283,-2.429,-2.4292,-2.4286,-2.4326,-2.4312,-2.4314,-2.4303,-2.4303,-2.4304,-2.432,0,-2.3548,-2.364,-2.3696,-2.3763,-2.3814,-2.3866,-2.3907,-2.3964,-2.4007,-2.4055,-2.4102,-2.4155,-2.4175,-2.42,-2.4225,-2.4276,-2.4291,-2.4276,-2.4339,-2.4341,-2.4321,-2.4317,-2.4303,-2.4315,-2.4323,-2.4324,-2.4324,0,-2.3579,-2.3639,-2.3711,-2.3792,-2.3816,-2.3852,-2.3918,-2.3963,-2.4027,-2.4057,-2.4102,-2.4141,-2.4191,-2.42,-2.4268,-2.4256,-2.4285,-2.4313,-2.4315,-2.4323,-2.4333,-2.4326,-2.4321,-2.4322,-2.4329,-2.4329,-2.4328,0,-2.3549,-2.3647,-2.3703,-2.3735,-2.3831,-2.3855,-2.3896,-2.396,-2.3997,-2.4053,-2.4078,-2.4138,-2.4171,-2.4216,-2.4269,-2.4271,-2.4331,-2.4345,-2.4356,-2.4354,-2.4367,-2.4366,-2.4367,-2.4385,-2.4384,-2.4384,-2.4384,0,-2.356,-2.3603,-2.3691,-2.3726,-2.3774,-2.3836,-2.3881,-2.3925,-2.3981,-2.4023,-2.4071,-2.4109,-2.4177,-2.4222,-2.4263,-2.4313,-2.4327,-2.4351,-2.4362,-2.4348,-2.4344,-2.4368,-2.4368,-2.4385,-2.4385,-2.4385,-2.4385,0,-2.3536,-2.3597,-2.3662,-2.3747,-2.3769,-2.38,-2.3872,-2.3906,-2.3952,-2.4004,-2.402,-2.409,-2.4146,-2.4204,-2.4278,-2.4306,-2.4354,-2.4368,-2.4333,-2.4339,-2.4346,-2.4345,-2.4363,-2.4368,-2.4382,-2.4381,-2.4381,0,-2.354,-2.3574,-2.3663,-2.3695,-2.3735,-2.3787,-2.3825,-2.3886,-2.3923,-2.3997,-2.4021,-2.4081,-2.4132,-2.4218,-2.4275,-2.4331,-2.4348,-2.435,-2.4356,-2.434,-2.4347,-2.4345,-2.4348,-2.4348,-2.4347,-2.4347,-2.4347,0,-2.3539,-2.3568,-2.3622,-2.3686,-2.373,-2.3783,-2.3837,-2.386,-2.3931,-2.397,-2.4029,-2.4068,-2.4145,-2.4202,-2.4266,-2.4305,-2.4337,-2.4344,-2.4349,-2.4335,-2.4313,-2.4325,-2.4327,-2.4343,-2.4344,-2.4344,-2.4344,-2.4344,-2.353,-2.3562,-2.3629,-2.3687,-2.3734,-2.3784,-2.382,-2.387,-2.392,-2.3989,-2.4021,-2.4079,-2.4139,-2.4228,-2.4266,-2.4311,-2.432,-2.4328,-2.433,-2.4331,-2.4327,-2.4306,-2.4322,-2.4322,-2.4323,-2.4323,-2.4323,0,-2.3532,-2.3577,-2.363,-2.3705,-2.375,-2.3777,-2.3838,-2.3873,-2.3925,-2.3979,-2.4029,-2.4095,-2.415,-2.4211,-2.4269,-2.4293,-2.4309,-2.4306,-2.4306,-2.4314,-2.4316,-2.4306,-2.4293,-2.4293,-2.4293,-2.4293,-2.4293,-2.4293,-2.3538,-2.3594,-2.3629,-2.3708,-2.3753,-2.3812,-2.3844,-2.3888,-2.3933,-2.4005,-2.4052,-2.4091,-2.4148,-2.4211,-2.4262,-2.4278,-2.4297,-2.429,-2.431,-2.4311,-2.4314,-2.4316,-2.4306,-2.4294,-2.4294,-2.4304,-2.4305,-2.4305]},{"header":{"parameterUnit":"m.s-1","parameterCategory":1,"la1":30.2991,"la2":30.254,"lo1":-89.0895,"lo2":-89.0444,"dy":0.0017,"dx":0.0017,"nx":28,"ny":28,"refTime":"2024-05-09T03:00:00:Z","depth":0,"parameterNumber":3,"parameterNumberName":"V-component_of_WINDS"},"data":[0,0,0,0,0,0,0,0,0,0,0,0,0,0,0,0,0,0,0,0,0,0,0,0,0,0,0,0,0,0,0,0,0,0,0,0,0,0,0,0,0,0,0,0,0,0,0,0,0,0,0,0,0,0,0,0,0,0,6.3615,6.3616,0,6.3697,6.3697,6.3698,6.3653,6.3651,6.3649,6.3647,6.3722,6.3726,6.373,0,0,0,0,0,0,0,0,0,0,0,0,0,6.3416,6.342,6.3615,6.3616,6.3617,6.3696,6.3697,6.3699,6.3654,6.3651,6.3648,6.3646,6.3721,6.3725,6.373,0,0,0,0,0,0,0,0,0,0,0,0,0,6.35,6.3422,6.3615,6.3605,6.3605,6.3696,6.3698,6.3699,6.3654,6.3651,6.3648,6.3645,6.3719,6.3725,6.3731,6.3835,0,0,6.3749,6.3752,0,0,0,0,0,0,0,0,6.3496,6.3508,6.3605,6.3606,6.3606,6.3662,6.3655,6.3744,6.3655,6.3635,6.3647,6.3643,6.3704,6.3711,6.3733,6.3838,6.3841,6.375,6.3754,6.3756,6.3758,0,0,0,0,0,0,0,6.349,6.3504,6.3647,6.3607,6.3607,6.3594,6.3603,6.3672,6.3687,6.3637,6.3634,6.3644,6.3703,6.3728,6.3735,6.3842,6.375,6.3755,6.3759,6.3761,6.404,6.4043,0,0,0,0,0,0,6.3486,6.35,6.3644,6.365,6.3542,6.3601,6.361,6.3647,6.3686,6.3689,6.3647,6.3642,6.3719,6.3728,6.3737,6.3863,6.3756,6.3762,6.3765,6.4036,6.4041,6.4045,0,0,0,0,0,0,6.3482,6.3499,6.3641,6.3574,6.3591,6.3608,6.3649,6.365,6.3674,6.3694,6.3696,6.3669,6.3716,6.3729,6.3812,6.3864,6.3765,6.377,6.4032,6.4037,6.4043,6.4114,0,0,0,0,0,0,6.3476,6.3498,6.3538,6.3575,6.3595,6.3716,6.3653,6.3654,6.3686,6.368,6.3715,6.3718,6.3715,6.3803,6.3818,6.3871,6.3775,6.4027,6.4034,6.4041,6.4107,6.4121,6.4133,0,0,0,0,0,6.3469,6.3552,6.3541,6.3558,6.3646,6.3719,6.373,6.3727,6.369,6.373,6.3744,6.3717,6.3857,6.3812,6.3828,6.3884,6.4023,6.4032,6.404,6.41,6.4118,6.4133,0,0,0,0,0,0,6.3516,6.3557,6.3544,6.3642,6.3679,6.3712,6.3762,6.3746,6.379,6.3782,6.3775,6.3783,6.387,6.3886,6.3835,6.3988,6.3934,6.3946,6.3975,6.3991,6.4005,6.3998,6.378,0,0,0,0,0,6.354,6.3598,6.3629,6.3712,6.3732,6.3744,6.3776,6.3772,6.3807,6.3821,6.384,6.3874,6.3926,6.396,6.4008,6.411,6.4117,6.4157,6.417,6.4181,6.419,6.4247,6.4265,6.4072,6.4072,6.4072,0,0,6.3585,6.3614,6.3651,6.3723,6.375,6.381,6.3757,6.3821,6.3864,6.383,6.391,6.3927,6.3964,6.4058,6.4099,6.4073,6.4246,6.4192,6.42,6.4204,6.4257,6.4276,6.4292,6.4078,6.4077,6.4076,0,0,6.3698,6.3727,6.3801,6.3831,6.3875,6.3884,6.3902,6.394,6.395,6.4032,6.4008,6.4059,6.4149,6.4177,6.4203,6.4334,6.4311,6.435,6.4419,6.4474,6.4489,6.4502,6.4549,6.4566,6.436,6.4361,6.4361,0,6.3748,6.3839,6.384,6.3908,6.394,6.3917,6.3992,6.402,6.4076,6.4098,6.4069,6.4184,6.4207,6.4308,6.4341,6.4363,6.4382,6.4344,6.4487,6.4501,6.4513,6.4558,6.4575,6.4365,6.4365,6.4364,6.4364,0,6.3899,6.3962,6.4017,6.4077,6.4116,6.4186,6.4197,6.4236,6.423,6.4242,6.4327,6.4355,6.441,6.4435,6.4427,6.4535,6.4518,6.4489,6.4433,6.4536,6.4578,6.4595,6.4371,6.437,6.4369,6.4367,0,0,6.4038,6.4104,6.4123,6.4151,6.4201,6.4249,6.432,6.4378,6.4412,6.4453,6.4511,6.459,6.4565,6.4595,6.4591,6.464,6.4743,6.4604,6.4605,6.4629,6.4865,6.4886,6.4905,6.473,6.4733,6.4736,6.4862,0,6.4155,6.4281,6.4287,6.44,6.446,6.4442,6.4503,6.454,6.4554,6.4605,6.462,6.4676,6.4638,6.4657,6.4705,6.472,6.479,6.4711,6.4782,6.4784,6.4771,6.4927,6.4948,6.5065,6.4878,6.4881,6.4883,0,6.4306,6.4357,6.4478,6.4524,6.4549,6.4604,6.466,6.4709,6.4751,6.4758,6.4795,6.4786,6.4857,6.4803,6.4901,6.4848,6.4878,6.4891,6.4895,6.4899,6.4838,6.4934,6.5103,6.512,6.4908,6.4906,6.4904,0,6.4396,6.4495,6.4581,6.4606,6.466,6.47,6.4724,6.4764,6.4799,6.4848,6.4871,6.4926,6.4955,6.4997,6.5003,6.4963,6.5102,6.5048,6.5108,6.5109,6.5135,6.5133,6.531,6.5158,6.5158,6.5158,6.5157,0,6.4524,6.4598,6.4623,6.4675,6.4759,6.4765,6.4847,6.4868,6.4905,6.496,6.4947,6.4999,6.5005,6.5058,6.5063,6.5144,6.5157,6.5164,6.5164,6.5164,6.5163,6.5181,6.5173,6.5162,6.5161,6.516,6.516,0,6.4636,6.4655,6.4748,6.4795,6.4809,6.4869,6.4908,6.4958,6.4974,6.5044,6.5061,6.5084,6.5147,6.5159,6.5231,6.5235,6.5332,6.5324,6.5318,6.5317,6.5376,6.537,6.5569,6.5595,6.5428,6.543,6.5431,0,6.4715,6.4773,6.4829,6.4867,6.4895,6.4956,6.4994,6.5004,6.5044,6.5099,6.5143,6.5206,6.5256,6.5357,6.5379,6.5436,6.5428,6.5494,6.5436,6.5436,6.5428,6.5424,6.543,6.5504,6.5506,6.5507,6.5509,0,6.4854,6.4862,6.4919,6.4982,6.5029,6.5077,6.5123,6.5155,6.5171,6.5216,6.5283,6.5323,6.54,6.5462,6.552,6.5543,6.5528,6.5528,6.5545,6.5544,6.5538,6.5542,6.5347,6.5522,6.5521,6.552,6.5519,6.5518,6.4951,6.5003,6.5052,6.5117,6.5154,6.5198,6.5249,6.5274,6.533,6.5397,6.5399,6.5472,6.5515,6.5592,6.5619,6.5675,6.5654,6.5678,6.5684,6.5689,6.5695,6.5532,6.5686,6.5685,6.5685,6.5685,6.5684,0,6.5088,6.5121,6.5181,6.5249,6.53,6.5288,6.5339,6.5382,6.5448,6.5491,6.5543,6.5621,6.5683,6.5712,6.5773,6.5813,6.5808,6.5828,6.5824,6.583,6.5711,6.569,6.5831,6.5831,6.5831,6.5831,6.5831,6.5831,6.5166,6.5254,6.5269,6.5375,6.5406,6.5481,6.5511,6.5552,6.5588,6.5676,6.5729,6.575,6.5788,6.5853,6.5909,6.5916,6.5938,6.5961,6.5965,6.5853,6.5838,6.5823,6.5804,6.5966,6.5967,6.6079,6.608,6.6081]}]]